Home   Weather   Kawasaki   Past weeks
Flag for Japan

Past Weather in Kawasaki, Japan — Yesterday and Last 2 Weeks

Now
59 °F

Passing clouds.


Feels Like: 57 °F
Forecast: 54 / 49 °F
Wind: 13 mph from West

Location: Tokyo International Airport

Current Time: Mar 25, 2019 at 9:06:22 pm

Latest Report: Mar 25, 2019 at 8:30 pm


Visibility: N/A

Pressure: 29.98 "Hg

Humidity: 31%

Dew Point: 28 °F

Location of KawasakiLocation

Past Weather in Kawasaki — Graph

°F

Kawasaki Temperature Yesterday

Maximum temperature yesterday: 57 °F (at 3:30 pm)
Minimum temperature yesterday: 37 °F (at 5:00 am)
Average temperature yesterday: 48 °F

High & Low Weather Summary for the Past Weeks

 TemperatureHumidityPressure
High70 °F (Mar 21, 12:30 pm)100% (Mar 11, 3:30 am)30.24 "Hg (Mar 11, 3:30 am)
Low37 °F (Mar 24, 5:00 am)23% (Mar 14, 2:00 am)29.27 "Hg (Mar 11, 1:00 pm)
Average53 °F55%29.86 "Hg
* Reported Mar 10 8:00 pm — Mar 25 8:00 pm, Kawasaki. Weather by CustomWeather, © 2019

Note: Actual official high and low records may vary slightly from our data, if they occured in-between our weather recording intervals... More about our weather records

Advertising

Kawasaki Weather History for the Previous 24 Hours

Scroll right to see more
 ConditionsComfort  
Time TempWeatherWind HumidityBarometerVisibility
8:00 pm
Mon, Mar 25
59 °FPassing clouds.13 mph31%29.98 "HgN/A
7:30 pm59 °FPassing clouds.17 mph34%29.98 "HgN/A
7:00 pm59 °FPassing clouds.15 mph36%29.95 "HgN/A
6:30 pm59 °FClear.13 mph39%29.95 "Hg10 mi
6:00 pm59 °FPartly cloudy.12 mph36%29.95 "HgN/A
5:30 pm59 °FPartly sunny.12 mph36%29.95 "HgN/A
5:00 pm59 °FBroken clouds.12 mph42%29.95 "HgN/A
4:30 pm59 °FBroken clouds.15 mph39%29.95 "HgN/A
4:00 pm57 °FPartly sunny.18 mph48%29.95 "HgN/A
3:30 pm57 °FPartly sunny.20 mph48%29.95 "HgN/A
3:00 pm57 °FPartly sunny.20 mph51%29.95 "HgN/A
2:30 pm57 °FPartly sunny.22 mph51%29.95 "HgN/A
2:00 pm55 °FPartly sunny.17 mph55%29.98 "HgN/A
1:30 pm57 °FPartly sunny.13 mph51%30.01 "HgN/A
1:00 pm57 °FPartly sunny.10 mph44%30.01 "HgN/A
12:30 pm54 °FPartly sunny.9 mph58%30.04 "HgN/A
12:00 pm52 °FPartly sunny.7 mph62%30.07 "HgN/A
11:30 am50 °FPartly sunny.5 mph58%30.07 "HgN/A
11:00 am52 °FPartly sunny.3 mph54%30.09 "HgN/A
10:30 am48 °FPartly sunny.3 mph58%30.09 "HgN/A
10:00 am50 °FScattered clouds.7 mph58%30.09 "HgN/A
9:00 am48 °FPartly sunny.8 mph54%30.09 "HgN/A
8:30 am48 °FPartly sunny.9 mph54%30.09 "HgN/A
8:00 am46 °FScattered clouds.10 mph50%30.12 "HgN/A
7:30 am45 °FPartly sunny.14 mph53%30.09 "HgN/A
7:00 am45 °FBroken clouds.13 mph49%30.09 "HgN/A
6:30 am43 °FBroken clouds.14 mph53%30.09 "HgN/A
6:00 am43 °FBroken clouds.13 mph49%30.09 "HgN/A
5:30 am43 °FPassing clouds.14 mph49%30.07 "HgN/A
5:00 am43 °FPassing clouds.14 mph53%30.07 "HgN/A
4:30 am43 °FPassing clouds.14 mph53%30.07 "HgN/A
4:00 am43 °FPassing clouds.15 mph49%30.04 "HgN/A
3:30 am45 °FPassing clouds.14 mph53%30.04 "HgN/A
3:00 am45 °FPassing clouds.10 mph49%30.04 "HgN/A
2:30 am45 °FPassing clouds.12 mph49%30.04 "HgN/A
2:00 am46 °FPassing clouds.13 mph46%30.04 "HgN/A
1:30 am46 °FPassing clouds.12 mph46%30.04 "HgN/A
1:00 am46 °FPassing clouds.12 mph46%30.04 "HgN/A
12:30 am46 °FPassing clouds.12 mph46%30.04 "HgN/A
12:00 am46 °FClear.12 mph46%30.04 "Hg10 mi
11:30 pm
Sun, Mar 24
46 °FClear.13 mph46%30.04 "Hg10 mi
11:00 pm46 °FClear.12 mph50%30.04 "Hg10 mi
10:30 pm48 °FClear.14 mph46%30.04 "Hg10 mi
10:00 pm48 °FClear.13 mph40%30.04 "Hg10 mi
9:30 pm50 °FPassing clouds.12 mph37%30.04 "HgN/A
9:00 pm52 °FPassing clouds.9 mph32%30.04 "HgN/A
Weather by CustomWeather, © 2019

See weather overview